FW6455 Weather Reports


Display with metric or nautical units.
time (UTC)temp
F
wind
direction
speed
MPH
gust
MPH
rain 1hr
in
rain 24hr
in
rain mn
in
humidity
%
barometer
mb
20260502164037 71 52 0.0 4.0 0.00 0.00 0.00 46 1023.7
20260502163537 71 306 0.0 4.0 0.00 0.00 0.00 46 1023.7
20260502163057 71 303 1.0 4.0 0.00 0.00 0.00 46 1023.6
20260502162537 71 58 0.0 4.0 0.00 0.00 0.00 47 1023.6
20260502162037 71 0 1.0 4.0 0.00 0.00 0.00 48 1023.6
20260502161613 71 310 0.0 1.0 0.00 0.00 0.00 47 1023.6
20260502161041 71 0 0.0 1.0 0.00 0.00 0.00 50 1023.6
20260502160539 70 0 0.0 1.0 0.00 0.00 0.00 50 1023.6
20260502152041 66 0 0.0 2.0 0.00 0.00 0.00 60 1023.6
20260502151605 65 20 0.0 1.0 0.00 0.00 0.00 62 1023.6
20260502151043 65 0 0.0 1.0 0.00 0.00 0.00 63 1023.6
20260502150539 65 290 0.0 1.0 0.00 0.00 0.00 62 1023.5
20260502130542 58 328 0.0 1.0 0.00 0.01 0.00 84 1022.7
20260502123538 53 0 0.0 0.0 0.00 0.01 0.00 91 1022.1
20260502123051 53 0 0.0 0.0 0.00 0.01 0.00 92 1022.0
20260502122538 53 0 0.0 0.0 0.00 0.01 0.00 93 1022.0
20260502122041 52 0 0.0 0.0 0.00 0.01 0.00 94 1021.9
20260502121556 51 0 0.0 0.0 0.00 0.01 0.00 93 1021.8
20260502121039 50 0 0.0 0.0 0.00 0.01 0.00 93 1021.7
20260502120542 49 0 0.0 0.0 0.00 0.01 0.00 93 1021.7
20260502115542 48 0 0.0 0.0 0.00 0.01 0.00 93 1021.3
20260502115041 48 0 0.0 0.0 0.00 0.01 0.00 93 1021.3
20260502114552 48 0 0.0 0.0 0.00 0.01 0.00 93 1021.3
20260502114042 48 0 0.0 0.0 0.00 0.01 0.00 93 1021.1
20260502113539 48 0 0.0 0.0 0.00 0.01 0.00 93 1021.0
20260502113052 48 0 0.0 0.0 0.00 0.01 0.00 93 1020.7
20260502112540 48 0 0.0 0.0 0.00 0.01 0.00 93 1020.6
20260502112040 49 0 0.0 0.0 0.00 0.01 0.00 93 1020.6
20260502111552 49 0 0.0 0.0 0.00 0.01 0.00 93 1020.4
20260502111038 49 0 0.0 0.0 0.00 0.01 0.00 93 1020.4
20260502110538 49 0 0.0 0.0 0.00 0.01 0.00 93 1020.4
20260502110054 49 0 0.0 0.0 0.00 0.01 0.00 93 1020.4
20260502105540 49 0 0.0 1.0 0.00 0.02 0.00 94 1020.2
20260502105039 49 0 0.0 1.0 0.00 0.02 0.00 94 1020.2
20260502104555 49 0 0.0 1.0 0.00 0.02 0.00 94 1020.4
20260502104039 48 0 0.0 0.0 0.00 0.02 0.00 93 1020.4
20260502103539 48 0 0.0 0.0 0.00 0.02 0.00 93 1020.4
20260502103051 48 0 0.0 0.0 0.00 0.02 0.00 93 1020.5
20260502102538 48 0 0.0 0.0 0.00 0.02 0.00 93 1020.5
20260502102041 48 0 0.0 0.0 0.00 0.02 0.00 93 1020.4
20260502101553 48 0 0.0 0.0 0.00 0.02 0.00 93 1020.3
20260502101043 48 0 0.0 0.0 0.00 0.02 0.00 93 1020.4
20260502100540 48 0 0.0 0.0 0.00 0.02 0.00 93 1020.2
20260502091038 49 0 0.0 0.0 0.00 0.02 0.00 93 1020.0
20260502090540 49 0 0.0 0.0 0.00 0.02 0.00 93 1019.9
20260502071040 50 0 0.0 0.0 0.00 0.02 0.00 92 1020.3
20260502070541 50 0 0.0 0.0 0.00 0.02 0.00 92 1020.2
20260502070054 51 0 0.0 0.0 0.00 0.02 0.00 92 1020.3
20260502065539 51 0 0.0 0.0 0.00 0.02 0.00 92 1020.3
20260502065038 51 0 0.0 0.0 0.00 0.02 0.00 92 1020.3
20260502064554 51 0 0.0 0.0 0.00 0.02 0.00 91 1020.4
20260502064039 51 0 0.0 0.0 0.00 0.02 0.00 91 1020.4
20260502063538 51 0 0.0 0.0 0.00 0.02 0.00 91 1020.4
20260502063055 51 0 0.0 0.0 0.00 0.02 0.00 91 1020.4
20260502062540 51 0 0.0 0.0 0.00 0.02 0.00 91 1020.4
20260502062036 51 0 0.0 0.0 0.00 0.02 0.00 91 1020.5
20260502061550 51 0 0.0 0.0 0.00 0.02 0.00 91 1020.6
20260502061038 52 0 0.0 0.0 0.00 0.02 0.00 91 1020.6
20260502060541 52 0 0.0 0.0 0.00 0.02 0.00 91 1020.6
20260502060051 52 0 0.0 0.0 0.00 0.02 0.00 91 1020.6
20260502055539 52 0 0.0 0.0 0.00 0.02 0.00 91 1020.5
20260502055039 52 0 0.0 0.0 0.00 0.02 0.00 91 1020.6
20260502054548 52 0 0.0 0.0 0.00 0.02 0.00 91 1020.4
20260502054038 52 0 0.0 0.0 0.00 0.02 0.00 91 1020.5
20260502053539 52 0 0.0 0.0 0.00 0.02 0.00 90 1020.6
20260502053109 52 0 0.0 0.0 0.00 0.02 0.00 90 1020.7
20260502052538 52 0 0.0 0.0 0.00 0.02 0.00 90 1020.5
20260502052041 52 0 0.0 0.0 0.00 0.02 0.00 90 1020.5
20260502051603 52 0 0.0 0.0 0.00 0.02 0.00 90 1020.6
20260502051040 52 0 0.0 0.0 0.00 0.02 0.00 90 1020.6
20260502050539 52 0 0.0 0.0 0.00 0.02 0.00 89 1020.6
20260502050054 53 0 0.0 0.0 0.00 0.02 0.00 89 1020.6
20260502045539 53 0 0.0 0.0 0.00 0.02 0.02 89 1020.6
20260502045041 53 0 0.0 0.0 0.00 0.02 0.02 89 1020.5
20260502044554 53 0 0.0 0.0 0.00 0.02 0.02 89 1020.5
20260502044040 53 0 0.0 0.0 0.00 0.02 0.02 88 1020.4
20260502043540 53 0 0.0 0.0 0.00 0.02 0.02 88 1020.4
20260502043055 54 0 0.0 0.0 0.00 0.02 0.02 88 1020.5
20260502042541 54 0 0.0 0.0 0.00 0.02 0.02 88 1020.4
20260502042037 54 0 0.0 0.0 0.00 0.02 0.02 88 1020.3
20260502041610 54 0 0.0 0.0 0.00 0.02 0.02 87 1020.2
20260502041040 54 0 0.0 0.0 0.00 0.02 0.02 87 1020.2
20260502040538 55 0 0.0 0.0 0.00 0.02 0.02 87 1020.1
20260502040054 55 0 0.0 0.0 0.00 0.02 0.02 87 1020.1
20260502035540 55 0 0.0 0.0 0.00 0.02 0.02 87 1020.2
20260502035040 55 0 0.0 0.0 0.00 0.02 0.02 87 1020.3
20260502034556 55 0 0.0 0.0 0.00 0.02 0.02 87 1020.3
20260502034041 55 0 0.0 0.0 0.00 0.02 0.02 87 1020.4
20260502033543 55 0 0.0 0.0 0.00 0.02 0.02 86 1020.2
20260502033106 55 0 0.0 0.0 0.00 0.02 0.02 86 1020.1
20260502032539 56 0 0.0 0.0 0.00 0.02 0.02 86 1020.1
20260502032039 56 0 0.0 0.0 0.00 0.02 0.02 86 1020.0
20260502031551 56 0 0.0 0.0 0.00 0.02 0.02 86 1019.9
20260502031041 56 0 0.0 0.0 0.00 0.02 0.02 85 1019.9
20260502030539 56 0 0.0 0.0 0.00 0.02 0.02 85 1019.8
20260502030056 56 0 0.0 0.0 0.00 0.02 0.02 85 1019.9
20260502025538 57 0 0.0 0.0 0.00 0.02 0.02 85 1019.8
20260502025038 57 0 0.0 0.0 0.00 0.02 0.02 85 1019.8
20260502024554 57 0 0.0 0.0 0.00 0.02 0.02 84 1019.6
20260502024039 57 0 0.0 0.0 0.00 0.02 0.02 83 1019.6
20260502023539 57 0 0.0 0.0 0.00 0.02 0.02 83 1019.6
20260502023058 57 0 0.0 0.0 0.00 0.02 0.02 83 1019.5
20260502022537 57 0 0.0 0.0 0.00 0.02 0.02 84 1019.4
20260502022040 57 0 0.0 0.0 0.00 0.02 0.02 84 1019.4
20260502021554 57 0 0.0 0.0 0.00 0.02 0.02 85 1019.4
20260502021038 57 0 0.0 0.0 0.00 0.02 0.02 85 1019.2
20260502020538 57 0 0.0 0.0 0.00 0.02 0.02 84 1019.2
20260502020054 57 0 0.0 0.0 0.00 0.02 0.02 84 1019.2
20260502015536 57 0 0.0 0.0 0.00 0.02 0.02 84 1019.1
20260502015037 57 0 0.0 0.0 0.00 0.02 0.02 84 1019.0
20260502014549 57 0 0.0 2.0 0.00 0.02 0.02 83 1018.9
20260502014037 57 0 0.0 2.0 0.00 0.02 0.02 83 1018.7
20260502013538 57 0 0.0 0.0 0.00 0.02 0.02 83 1018.7
20260502013046 58 0 0.0 0.0 0.00 0.02 0.02 83 1018.6
20260502012539 58 0 0.0 0.0 0.00 0.02 0.02 82 1018.5
20260502012040 58 0 0.0 0.0 0.00 0.02 0.02 82 1018.5
20260502011547 58 0 0.0 0.0 0.00 0.02 0.02 81 1018.4
20260502011036 58 0 0.0 0.0 0.00 0.02 0.02 80 1018.2
20260502010539 58 0 0.0 0.0 0.00 0.02 0.02 80 1018.1
20260502005538 58 0 0.0 0.0 0.00 0.02 0.02 80 1018.0
20260502005038 58 0 0.0 0.0 0.00 0.02 0.02 80 1017.9
20260502004553 58 0 0.0 1.0 0.00 0.02 0.02 80 1017.8
20260502004037 58 0 0.0 1.0 0.00 0.02 0.02 79 1017.8
20260502003536 58 0 0.0 1.0 0.00 0.02 0.02 79 1017.7
20260502003049 58 0 0.0 1.0 0.00 0.02 0.02 78 1017.7
20260502002537 59 0 0.0 1.0 0.00 0.02 0.02 78 1017.7
20260502002035 59 45 0.0 3.0 0.00 0.02 0.02 77 1017.7
20260502001558 59 45 0.0 3.0 0.00 0.02 0.02 77 1017.5
20260502001039 59 65 0.0 3.0 0.00 0.02 0.02 76 1017.4
20260502000535 59 77 1.0 3.0 0.00 0.02 0.02 75 1017.5
20260502000048 59 60 0.0 2.0 0.00 0.02 0.02 75 1017.6
20260501235539 59 81 0.0 2.0 0.00 0.02 0.02 74 1017.7
20260501235038 59 0 0.0 3.0 0.00 0.02 0.02 74 1017.5
20260501234547 59 34 1.0 5.0 0.00 0.02 0.02 73 1017.3
20260501234038 59 96 0.0 7.0 0.00 0.02 0.02 73 1017.2
20260501233538 60 75 2.0 7.0 0.00 0.02 0.02 72 1017.2
20260501233050 60 79 1.0 4.0 0.00 0.02 0.02 72 1017.1
20260501232538 60 28 2.0 6.0 0.00 0.02 0.02 70 1017.0
20260501232038 60 109 1.0 6.0 0.00 0.02 0.02 69 1017.1
20260501231602 61 25 2.0 6.0 0.00 0.02 0.02 68 1017.1
20260501231039 61 80 2.0 6.0 0.00 0.02 0.02 67 1017.2
20260501230539 61 79 2.0 6.0 0.00 0.02 0.02 67 1017.2
20260501230058 61 53 3.0 6.0 0.00 0.02 0.02 66 1017.0
20260501225539 61 21 2.0 6.0 0.00 0.02 0.02 67 1017.0
20260501225038 61 41 1.0 5.0 0.00 0.02 0.02 68 1016.9
20260501224551 61 58 1.0 4.0 0.00 0.02 0.02 67 1016.9
20260501224042 61 0 1.0 6.0 0.00 0.02 0.02 67 1016.8
20260501223538 61 44 1.0 8.0 0.00 0.02 0.02 67 1016.7
20260501223112 61 71 2.0 8.0 0.00 0.02 0.02 66 1016.6
20260501222542 61 73 4.0 7.0 0.00 0.02 0.02 65 1016.6
20260501222041 61 37 2.0 6.0 0.00 0.02 0.02 65 1016.5
20260501221554 61 65 2.0 6.0 0.00 0.02 0.02 65 1016.7
20260501221040 62 15 2.0 5.0 0.00 0.02 0.02 66 1016.6
20260501220540 62 76 1.0 6.0 0.00 0.02 0.02 65 1016.7
20260501220054 62 64 1.0 6.0 0.00 0.02 0.02 65 1016.6
20260501215540 62 37 3.0 9.0 0.00 0.02 0.02 64 1016.5
20260501215040 62 67 3.0 9.0 0.00 0.02 0.02 65 1016.6
20260501214554 62 347 1.0 8.0 0.00 0.02 0.02 65 1016.5
20260501214039 62 68 0.0 5.0 0.00 0.02 0.02 67 1016.7
20260501213539 62 16 0.0 5.0 0.00 0.02 0.02 68 1016.8
20260501213052 62 0 1.0 5.0 0.00 0.02 0.02 67 1016.8
20260501212539 62 70 1.0 5.0 0.00 0.02 0.02 66 1016.7
20260501212042 61 17 2.0 5.0 0.00 0.02 0.02 66 1016.7
20260501211553 61 65 2.0 5.0 0.00 0.02 0.02 67 1016.7
20260501211039 61 62 2.0 5.0 0.00 0.02 0.02 68 1016.7
20260501210540 61 92 3.0 5.0 0.00 0.02 0.02 68 1016.8
20260501210056 61 65 2.0 5.0 0.00 0.02 0.02 69 1016.8
20260501205540 61 17 2.0 4.0 0.00 0.02 0.02 70 1016.6
20260501205039 61 44 0.0 4.0 0.00 0.02 0.02 73 1016.6
20260501204613 60 7 1.0 5.0 0.00 0.02 0.02 71 1016.8
20260501204040 60 68 1.0 5.0 0.00 0.02 0.02 70 1016.9
20260501203541 60 50 0.0 4.0 0.00 0.02 0.02 71 1017.0
20260501203054 60 99 0.0 4.0 0.00 0.02 0.02 70 1017.2
20260501202541 60 0 1.0 4.0 0.00 0.02 0.02 70 1017.2
20260501202041 61 0 0.0 5.0 0.00 0.02 0.02 71 1017.2
20260501201551 61 75 1.0 5.0 0.00 0.02 0.02 67 1017.3
20260501201039 61 73 2.0 7.0 0.00 0.02 0.02 66 1017.3
20260501200539 61 105 1.0 7.0 0.00 0.02 0.02 65 1017.3
20260501200048 61 81 1.0 5.0 0.00 0.02 0.02 64 1017.4
20260501195539 61 100 1.0 6.0 0.00 0.02 0.02 63 1017.6
20260501195040 61 88 3.0 8.0 0.00 0.02 0.02 62 1017.5
20260501194548 61 55 3.0 10.0 0.00 0.02 0.02 61 1017.7
20260501194039 61 91 2.0 10.0 0.00 0.02 0.02 61 1017.2
20260501193540 61 35 4.0 10.0 0.00 0.02 0.02 60 1017.0
20260501193049 61 60 4.0 13.0 0.00 0.02 0.02 61 1016.7
20260501192540 61 49 3.0 13.0 0.00 0.02 0.02 61 1016.7
20260501192043 61 63 4.0 13.0 0.00 0.02 0.02 61 1016.9
20260501191549 61 48 3.0 8.0 0.00 0.02 0.02 62 1016.7
20260501191040 61 84 2.0 8.0 0.00 0.02 0.02 64 1016.8
20260501190539 61 53 4.0 8.0 0.00 0.02 0.02 62 1017.1
20260501190050 61 68 2.0 7.0 0.00 0.02 0.02 64 1017.2
20260501185540 61 93 2.0 9.0 0.00 0.02 0.02 64 1016.9
20260501185040 62 18 3.0 12.0 0.00 0.02 0.02 64 1017.1
20260501184552 62 67 2.0 12.0 0.00 0.02 0.02 64 1017.1
20260501184040 62 117 2.0 12.0 0.00 0.02 0.02 62 1017.1
20260501183544 62 25 5.0 14.0 0.00 0.02 0.02 61 1017.0
20260501183100 62 90 5.0 14.0 0.00 0.02 0.02 63 1017.0
20260501182539 62 58 3.0 8.0 0.00 0.02 0.02 65 1016.9
20260501182039 61 85 3.0 9.0 0.00 0.02 0.02 65 1017.4
20260501181557 61 75 3.0 9.0 0.00 0.02 0.02 65 1017.2
20260501181039 61 53 3.0 7.0 0.00 0.02 0.02 65 1017.2
20260501180539 60 135 4.0 10.0 0.00 0.02 0.02 67 1017.5
20260501180059 60 98 4.0 10.0 0.00 0.02 0.02 66 1017.5